Cloud_Cover
5 0 0 0 0 13 69 1 71 11 5 1 5 0 0 0 8 100 100 86 32 25
5 0 0 0 0 0 5 92 25 19 0 5 2 0 0 0 0 8 5 3 66 3
4 5 0 0 2 5 12 3 0 20 39 5 2 0 0 43 5 5 0 5 5 2
4 5 2 0 7 4 0 0 0 73 77 5 6 2 0 90 10 5 0 0 20 3
6 77 92 95 2 5 4 4 22 26 0 0 1 5 0 50 35 5 0 0 0 5
85 100 100 69 100 39 5 92 26 8 1 52 13 5 0 0 4 5 1 0 2 5
100 100 100 30 54 100 94 6 100 38 58 46 97 26 2 5 0 1 4 0 0 3
100 100 100 100 100 100 100 96 34 100 80 96 5 5 0 0 0 0 0 4 3 5
100 100 100 100 100 100 100 100 100 2 55 100 17 5 0 0 0 1 1 0 4 86
100 100 100 100 100 100 100 100 100 76 0 0 2 1 0 0 8 9 5 5 5 3
100 100 100 100 100 100 100 100 100 100 90 5 70 100 100 32 3 92 82 3 5 31
100 100 100 100 100 100 100 100 100 100 100 100 100 100 100 87 13 5 5 1 5 5
73 100 100 100 100 100 100 100 100 100 100 100 100 100 100 100 100 97 14 5 64 100
26 85 100 100 100 100 100 100 100 100 100 100 100 100 100 100 100 100 98 100 100 93